Regional Weather Roundup
Issued by NWS Grand Forks, ND

Home | Current Version | Previous Version | Text Only | Print | Product List | Glossary Off
Versions: 1 2 3 4 5 6 7 8 9 10 11 12 13 14 15 16 17 18 19 20 21 22 23 24 25 26 27 28 29 30 31 32 33 34 35 36 37 38 39 40 41 42 43 44 45 46 47 48 49 50

119
ASUS43 KFGF 051410
RWRFGF
PRAIRIE TO PINES  WEATHER ROUNDUP
NATIONAL WEATHER SERVICE EASTERN NORTH DAKOTA/GRAND FORKS ND
800 AM CST FRI FEB 05 2016

 **SATELLITE DATA USED TO AUGMENT SKY COVER AT AUTOMATED STATIONS**
 *****  WEATHER ACROSS EASTERN NORTH DAKOTA  *****

CITY           SKY/WX    TMP DP  RH WIND       PRES   REMARKS
GRAND FORKS    CLOUDY    18  12  77 CALM      30.13R
GRAND FRKS AFB CLOUDY    17  13  86 E1        30.12R
GRAND FRKS NWS   N/A     18 N/A N/A S2          N/A
DEVILS LAKE    PTCLDY    16  13  88 NW8       30.11R WCI   5
FARGO          CLOUDY    20  14  77 S8        30.15R WCI  10
WAHPETON ARPT  CLOUDY    18  14  86 S13       30.17S WCI   4
$$

 ***** WEATHER ACROSS CENTRAL AND WESTERN NORTH DAKOTA  *****

CITY           SKY/WX    TMP DP  RH WIND       PRES   REMARKS
BISMARCK       PTCLDY    29  24  82 NW7       30.15R WCI  22
MINOT          CLOUDY    21  14  74 W9        30.14R WCI  11
JAMESTOWN      CLOUDY    26  22  84 NW7       30.08R WCI  18
MINOT AFB      CLOUDY    19  16  87 NW7       30.13S WCI  10
GARRISON         N/A     19  15  84 NW9       30.14R WCI   8
WILLISTON      CLEAR     13  10  88 SW7       30.18S WCI   3
DICKINSON      CLOUDY    23  21  92 W13       30.13S WCI  11
HETTINGER      CLOUDY    29  25  85 NW18G24   30.17R WCI  16
$$

 *****  OTHER AIRPORT OBSERVATIONS IN OUR AREA  *****

CITY           SKY/WX    TMP DP  RH WIND       PRES   REMARKS
WALHALLA         N/A      7   7 100 CALM      30.14S
GRAFTON AIRPOR FAIR      10  10 100 NE3       30.16R
VALLEY CITY AR CLOUDY    21  21 100 S5        30.11S WCI  15
CANDO          NOT AVBL
CAVALIER APRT  FAIR       7   5  92 N3        30.15S
GWINNER        NOT AVBL
SHEYENNE NWR     N/A     20  17  89 S5        29.95S WCI  13
ROLLA          CLOUDY    18  16  93 NW7       30.09S WCI   8
 ***** THE ABOVE OBSERVATIONS ARE NON NWS ARE NOT QUALITY
       CONTROLLED AND MAY MIS-REPORT RAIN FOR SNOW...
$$

  *****  WEATHER ACROSS NORTHERN MINNESOTA  *****

CITY           SKY/WX    TMP DP  RH WIND       PRES   REMARKS
FLAG ISLAND    FLURRIES  10   7  85 SE5       30.15F WCI   2
WARROAD        CLOUDY    12   9  85 E5        30.15S WCI   4
ROSEAU         CLOUDY    18  12  79 CALM      30.14S
HALLOCK        CLOUDY    10   9  92 SE5       30.14S WCI   2
THF RVR FALLS  CLOUDY    14  10  85 E7        30.14R WCI   4
BAUDETTE       CLOUDY    13   8  81 SE5       30.16R WCI   5
WASKISH        CLOUDY    16  12  86 SE5       30.16F WCI   9
CROOKSTON      PTCLDY    18  14  86 S7        30.14S WCI   8
STEPHEN NDAWN    N/A     10   9  92 SE2         N/A
GREENBUSH NDAW   N/A      3   1  92 SE3         N/A
$$
  *****  WEATHER ACROSS CENTRAL AND WEST MINNESOTA  *****

CITY           SKY/WX    TMP DP  RH WIND       PRES   REMARKS
FOSSTON        CLOUDY    16  10  79 S8        30.13S WCI   5
BEMIDJI        CLOUDY    11   9  88 SE5       30.14F WCI   3
PARK RAPIDS    CLOUDY    12   8  84 SE8       30.14F WCI   0
ELBOW LAKE     CLOUDY    17  15  90 SE13      30.18R WCI   4
WADENA         CLOUDY    12  10  92 S7        30.16S WCI   2
DETROIT LAKES  CLOUDY    19  16  86 S7        30.14R WCI  10
MOORHEAD       CLOUDY    19  14  79 S10       30.16R WCI   8
FERGUS FALLS   CLOUDY    18  16  93 S13       30.20S WCI   4
MORRIS MN      CLOUDY    16  14  93 SE13      30.18R WCI   2
STAPLES        CLOUDY    10   9  92 S8        30.19S WCI  -1
$$
  *****  WEATHER ELSEWHERE ACROSS MINNESOTA  *****

CITY           SKY/WX    TMP DP  RH WIND       PRES   REMARKS
DULUTH         CLOUDY     2  -2  83 W3        30.24R
INTRNTL FALLS  CLOUDY     8   5  87 SE5       30.19F WCI   0
ELY            CLOUDY    -2  -6  84 CALM      30.22S
CLOQUET        CLOUDY     5   1  85 CALM      30.25R
WHEATON        CLOUDY    19  16  86 SE7       30.19R WCI  10
BRAINERD       CLOUDY    10   7  87 S8        30.22S WCI  -2
HIBBING        CLOUDY     1  -2  87 CALM      30.22S
ALEXANDRIA     CLOUDY    16  12  84 S12       30.18F WCI   3
SAINT CLOUD    CLOUDY     6   3  87 SE6       30.27S WCI  -4
MINNEAPOLIS    CLOUDY     7   5  91 SE5       30.34R WCI  -2
$$

  *****  WEATHER ACROSS SOUTH DAKOTA  *****

CITY           SKY/WX    TMP DP  RH WIND       PRES   REMARKS
SIOUX FALLS    CLOUDY    19  13  77 S10       30.22S WCI   7
BROOKINGS      CLOUDY    17  13  84 S13       30.16S WCI   4
WATERTOWN      CLOUDY    18  12  77 S14       30.13S WCI   4
HURON          CLOUDY    20  15  81 S8        30.15R WCI  10
SISSETON         N/A     25  17  72 CALM      30.15R
ABERDEEN       CLOUDY    24  19  81 S8        30.14R WCI  15
MITCHELL       CLOUDY    21  16  81 S9        30.17F WCI  11
PIERRE         CLOUDY    29  24  82 W8        30.11R WCI  21
MOBRIDGE       FLURRIES  31  25  78 NW6       30.09R
RAPID CITY     PTCLDY    29  25  85 N17       30.17R WCI  17
$$

  *****  SOME WEATHER IN NEARBY STATES *****

CITY           SKY/WX    TMP DP  RH WIND       PRES   REMARKS
GLASGOW MT     FOG        9   6  88 CALM      30.18F VSB 3/4
GREAT FALLS MT CLEAR     30  20  66 SW15      30.20F WCI  19
CHEYENNE WY    CLEAR     16   6  65 W13       30.23R WCI   2
SCOTTSBLUFF NE CLEAR     15   9  76 NW12      30.26R WCI   2
OMAHA NE       CLOUDY    21  19  92 S9        30.37R WCI  11
DES MOINES IA  CLOUDY    16  13  88 CALM      30.40R FOG
DAVENPORT IA   CLOUDY    24  18  77 NW5       30.38S WCI  18
CHICAGO IL     CLOUDY    29  25  85 N10       30.32R WCI  20
EAU CLAIRE WI  PTCLDY     2  -2  83 CALM      30.34R
LA CROSSE WI   CLOUDY     2  -2  83 CALM      30.38R
$$

  *****  SOME NATIONAL WEATHER *****

CITY           SKY/WX    TMP DP  RH WIND       PRES   REMARKS
LA GUARDIA NY  LGT SNOW  32  28  85 N22G32    30.08R VSB 1   WCI  19
RALEIGH NC     PTSUNNY   39  25  57 N9G17     30.28R
ATLANTA GA     MOSUNNY   33  17  51 NW10      30.36R WCI  25
NEW ORLEANS LA SUNNY     44  27  51 NE10      30.51R
OKLAHOMA CITY  CLOUDY    33  25  72 S7        30.36R
ALBUQUERQUE NM PTCLDY    24  12  60 N20G30    30.35R WCI  10
SALT LAKE CITY LGT SNOW  28  24  85 CALM      30.54R FOG
LOS ANGELES CA PTCLDY    51  27  39 NE3       30.30R
BOISE ID       CLEAR     30  29  96 CALM      30.53S FOG
SEATTLE WA     PTCLDY    43  38  82 CALM      30.24F
$$

*** WEATHER ACROSS MANITOBA...SASKATCHEWAN AND ONTARIO ***
                ***ONTARIO***

CITY           SKY/WX    TMP DP  RH WIND       PRES   REMARKS
GERALDTON      PTCLDY    -2  -6  84 W3        30.18R
THUNDER BAY    MOCLDY    -6  -9  84 W3        30.29R
SIOUX LOOKOUT  MOCLDY   -11 -15  84 S3        30.17F
TORONTO        PTSUNNY   28  19  69 VRB2      30.29R
BIG TROUT LK   CLEAR    -29 -35  75 SW2       30.16F
PICKLE LAKE    FLURRIES  -4  -9  77 CALM      30.13S
DRYDEN         FLURRIES   0  -4  85 S5        30.17R WCI -10
KENORA         LGT SNOW   7   3  85 SE8       30.14F WCI  -6
$$
                *** MANITOBA***

CITY           SKY/WX    TMP DP  RH WIND       PRES   REMARKS
BRANDON        MOCLDY     5   3  92 W8        30.13R WCI  -8
DAUPHIN        CLOUDY    10   9  92 W5        30.14R WCI   2
ISLAND LAKE    FLURRIES -13 -18  77 VRB2      30.15S
PILOT MOUND      N/A      1   0  92 W2          N/A
THE PAS        FLURRIES   1  -2  85 CALM      30.12R
THOMPSON       CRYSTALS -27 -35  68 VRB2      30.13S
WINNIPEG       FLURRIES   5   1  85 NW3       30.16R
LYNN LAKE      CLEAR    -29 -35  75 NW8       30.09F WCI -50
CHURCHILL      CRYSTALS -38 -45  67 W9        30.16S WCI -62
GILLAM         FLURRIES -20 -26  76 NW5       30.13S WCI -33
$$
                ***SASKATCHEWAN***

CITY           SKY/WX    TMP DP  RH WIND       PRES   REMARKS
ESTEVAN        MOCLDY    10   7  85 SW7       30.13S WCI   0
KINDERSLEY     PTCLDY     9   7  92 S10       30.00F WCI  -6
LLOYDMINSTER   MOCLDY    19  14  79 SW8       29.91F WCI   9
PRINCE ALBERT  CLOUDY    14  10  85 SW6       30.01F WCI   5
REGINA         PTCLDY     5   3  92 S9        30.09F WCI  -9
YORKTON        CLOUDY    16  12  86 S8        30.07F WCI   5
N. BATTLEFORD  CLOUDY    10  10 100 S3        30.00F
LA RONGE       FLURRIES   0  -4  85 NE5       30.01F WCI -10
SASKATOON      CLEAR      5   3  92 S6        30.03F WCI  -6
SWIFT CURRENT  CLEAR     21  16  79 SW14      30.03F WCI   8
$$
NOTE: THESE ARE AUTOMATED STATIONS WITH LIMITED QUALITY CONTROL
      "FAIR" INDICATES FEW OR NO CLOUDS BELOW 12,000 FEET WITH NO
      SIGNIFICANT WEATHER AND/OR OBSTRUCTIONS TO VISIBILITY.
      SKY/WX - SKY CONDITION AND SIGNIFICANT WEATHER.
      TMP - AIR TEMPERATURE.    DP   - DEWPOINT TEMPERATURE.
      RH  - RELATIVE HUMIDITY.  PRES - PRESSURE.
      HX  - HEAT INDEX.         WCI  - WIND CHILL INDEX.
$




USA.gov is the U.S. government's official web portal to all federal, state and local government web resources and services.